Regional Weather Roundup
Issued by NWS

Home | Current Version | Previous Version | Text Only | Print | Product List | Glossary Off
Versions: 1 2 3 4 5 6 7 8 9 10 11 12 13 14 15 16 17 18 19 20 21 22 23 24 25 26 27 28 29 30 31 32 33 34 35 36 37 38 39 40 41 42 43 44 45 46 47 48 49 50

000
ASUS45 KCYS 261510
RWRWY

WYOMING REGIONAL WEATHER ROUNDUP
NATIONAL WEATHER SERVICE CHEYENNE WY
900 AM MDT SUN APR 26 2015

NOTE:  "FAIR" INDICATES FEW OR NO CLOUDS BELOW 12,000 FEET
WITH NO SIGNIFICANT WEATHER AND/OR OBSTRUCTIONS TO VISIBILITY.

WYZ001-261600-
YELLOWSTONE NATIONAL PARK

CITY           SKY/WX    TMP DP  RH WIND       PRES   REMARKS
LK YELLOWSTONE   N/A     33  25  72 CALM      29.88R
W YELLOWSTONE  NOT AVBL

$$
WYZ002>013-054>058-071-098>099-261600-
NORTHERN WYOMING

CITY           SKY/WX    TMP DP  RH WIND       PRES   REMARKS
JACKSON        LGT SNOW  36  36 100 VRB5      29.83R WCI  32
CODY           CLOUDY    34  30  86 N7        29.93S VSB 1   WCI  28
GREYBULL       PTSUNNY   47  36  65 NW13      29.88R
WORLAND        LGT RAIN  41  36  82 NW9       29.90R
SHERIDAN       CLOUDY    39  35  86 CALM      30.00R
BUFFALO        LGT RAIN  37  34  89 NW10      29.97S FOG     WCI  30
GILLETTE       CLOUDY    40  37  89 NE12      29.94R WCI  33
HULETT         CLOUDY    41  39  93 NE10      29.97S FOG
NEWCASTLE      FAIR      45  43  93 CALM      29.91R

$$
WYZ014>020-022>026-101>103-261600-
CENTRAL WYOMING

CITY           SKY/WX    TMP DP  RH WIND       PRES   REMARKS
BIG PINEY      LGT RAIN  39  36  89 SE13      29.82R WCI  31
PINEDALE       LGT RAIN  37  36  93 CALM      29.83R
DUBOIS         CLOUDY    32  32 100 SE7       29.87R WCI  26
LANDER         MIX PCPN  35  34  96 N9        29.88R FOG     WCI  28
RIVERTON       LGT RAIN  35  34  96 N10       29.89R FOG     WCI  27
CASPER         LGT RAIN  36  34  92 NE9       29.90R WCI  29
DOUGLAS        RAIN      41  41 100 W7        29.89R FOG

$$
WYZ021-027>030-104>119-261600-
SOUTHERN WYOMING

CITY           SKY/WX    TMP DP  RH WIND       PRES   REMARKS
EVANSTON       CLOUDY    32  30  92 W8        29.85R WCI  25
KEMMERER       CLOUDY    34  32  93 W17       29.81R WCI  23
FORT BRIDGER   LGT SNOW  36  36 100 NW16G24   29.85R WCI  26
ROCK SPRINGS   FAIR      42  35  76 SE7       29.80R
DIXON          FAIR      48  35  61 CALM      29.81S
RAWLINS        CLOUDY    43  36  76 NE12      29.83R
SARATOGA       PTSUNNY   43  36  75 SE8       29.83R
LARAMIE        CLOUDY    39  36  89 SE6       29.84S WCI  35
CHEYENNE       LGT RAIN  41  39  93 SE14      29.86R FOG
TORRINGTON     LGT RAIN  47  46  97 E14       29.86R
PINE BLUFFS    LGT RAIN  43  41  93 SE8       29.89R

$$



USA.gov is the U.S. government's official web portal to all federal, state and local government web resources and services.